Year,Month,Day,Hour,Minute,Value (Times are PST for temperature in C)
2019,03,31,00,00,5.20
2019,03,31,00,01,5.20
2019,03,31,00,02,5.20
2019,03,31,00,03,5.10
2019,03,31,00,04,5.10
2019,03,31,00,05,5.10
2019,03,31,00,06,5.10
2019,03,31,00,07,5.10
2019,03,31,00,08,5.10
2019,03,31,00,09,5.10
2019,03,31,00,10,5.10
2019,03,31,00,11,5.00
2019,03,31,00,12,5.00
2019,03,31,00,13,5.00
2019,03,31,00,14,5.00
2019,03,31,00,15,4.90
2019,03,31,00,16,4.90
2019,03,31,00,17,4.90
2019,03,31,00,18,4.90
2019,03,31,00,19,4.90
2019,03,31,00,20,4.90
2019,03,31,00,21,4.90
2019,03,31,00,22,4.80
2019,03,31,00,23,4.80
2019,03,31,00,24,4.80
2019,03,31,00,25,4.80
2019,03,31,00,26,4.80
2019,03,31,00,27,4.80
2019,03,31,00,28,4.80
2019,03,31,00,29,4.80
2019,03,31,00,30,4.70
2019,03,31,00,31,4.70
2019,03,31,00,32,4.70
2019,03,31,00,33,4.70
2019,03,31,00,34,4.70
2019,03,31,00,35,4.70
2019,03,31,00,36,4.70
2019,03,31,00,37,4.70
2019,03,31,00,38,4.70
2019,03,31,00,39,4.70
2019,03,31,00,40,4.60
2019,03,31,00,41,4.60
2019,03,31,00,42,4.60
2019,03,31,00,43,4.60
2019,03,31,00,44,4.60
2019,03,31,00,45,4.60
2019,03,31,00,46,4.50
2019,03,31,00,47,4.50
2019,03,31,00,48,4.50
2019,03,31,00,49,4.50
2019,03,31,00,50,4.50
2019,03,31,00,51,4.50
2019,03,31,00,52,4.40
2019,03,31,00,53,4.40
2019,03,31,00,54,4.40
2019,03,31,00,55,4.40
2019,03,31,00,56,4.40
2019,03,31,00,57,4.30
2019,03,31,00,58,4.30
2019,03,31,00,59,4.30
2019,03,31,01,00,4.30
2019,03,31,01,01,4.30
2019,03,31,01,02,4.30
2019,03,31,01,03,4.30
2019,03,31,01,04,4.30
2019,03,31,01,05,4.30
2019,03,31,01,06,4.30
2019,03,31,01,07,4.30
2019,03,31,01,08,4.30
2019,03,31,01,09,4.20
2019,03,31,01,10,4.20
2019,03,31,01,11,4.20
2019,03,31,01,12,4.20
2019,03,31,01,13,4.20
2019,03,31,01,14,4.20
2019,03,31,01,15,4.20
2019,03,31,01,16,4.10
2019,03,31,01,17,4.10
2019,03,31,01,18,4.10
2019,03,31,01,19,4.10
2019,03,31,01,20,4.10
2019,03,31,01,21,4.10
2019,03,31,01,22,4.10
2019,03,31,01,23,4.10
2019,03,31,01,24,4.10
2019,03,31,01,25,4.00
2019,03,31,01,26,4.00
2019,03,31,01,27,4.00
2019,03,31,01,28,4.00
2019,03,31,01,29,4.00
2019,03,31,01,30,4.00
2019,03,31,01,31,3.90
2019,03,31,01,32,3.90
2019,03,31,01,33,3.90
2019,03,31,01,34,3.90
2019,03,31,01,35,3.90
2019,03,31,01,36,3.90
2019,03,31,01,37,3.80
2019,03,31,01,38,3.80
2019,03,31,01,39,3.80
2019,03,31,01,40,3.80
2019,03,31,01,41,3.80
2019,03,31,01,42,3.80
2019,03,31,01,43,3.80
2019,03,31,01,44,3.80
2019,03,31,01,45,3.80
2019,03,31,01,46,3.80
2019,03,31,01,47,3.80
2019,03,31,01,48,3.70
2019,03,31,01,49,3.70
2019,03,31,01,50,3.70
2019,03,31,01,51,3.70
2019,03,31,01,52,3.70
2019,03,31,01,53,3.70
2019,03,31,01,54,3.70
2019,03,31,01,55,3.70
2019,03,31,01,56,3.70
2019,03,31,01,57,3.70
2019,03,31,01,58,3.70
2019,03,31,01,59,3.70
2019,03,31,02,00,3.70
2019,03,31,02,01,3.60
2019,03,31,02,02,3.60
2019,03,31,02,03,3.60
2019,03,31,02,04,3.60
2019,03,31,02,05,3.60
2019,03,31,02,06,3.60
2019,03,31,02,07,3.60
2019,03,31,02,08,3.60
2019,03,31,02,09,3.60
2019,03,31,02,10,3.60
2019,03,31,02,11,3.60
2019,03,31,02,12,3.50
2019,03,31,02,13,3.50
2019,03,31,02,14,3.50
2019,03,31,02,15,3.40
2019,03,31,02,16,3.40
2019,03,31,02,17,3.40
2019,03,31,02,18,3.40
2019,03,31,02,19,3.40
2019,03,31,02,20,3.30
2019,03,31,02,21,3.30
2019,03,31,02,22,3.30
2019,03,31,02,23,3.30
2019,03,31,02,24,3.30
2019,03,31,02,25,3.30
2019,03,31,02,26,3.30
2019,03,31,02,27,3.30
2019,03,31,02,28,3.30
2019,03,31,02,29,3.30
2019,03,31,02,30,3.20
2019,03,31,02,31,3.20
2019,03,31,02,32,3.20
2019,03,31,02,33,3.20
2019,03,31,02,34,3.20
2019,03,31,02,35,3.20
2019,03,31,02,36,3.20
2019,03,31,02,37,3.20
2019,03,31,02,38,3.20
2019,03,31,02,39,3.10
2019,03,31,02,40,3.10
2019,03,31,02,41,3.10
2019,03,31,02,42,3.10
2019,03,31,02,43,3.10
2019,03,31,02,44,3.10
2019,03,31,02,45,3.00
2019,03,31,02,46,3.00
2019,03,31,02,47,3.00
2019,03,31,02,48,3.00
2019,03,31,02,49,3.00
2019,03,31,02,50,2.90
2019,03,31,02,51,2.90
2019,03,31,02,52,2.90
2019,03,31,02,53,2.90
2019,03,31,02,54,2.90
2019,03,31,02,55,2.90
2019,03,31,02,56,2.90
2019,03,31,02,57,2.90
2019,03,31,02,58,2.90
2019,03,31,02,59,2.90
2019,03,31,03,00,2.90
2019,03,31,03,01,2.90
2019,03,31,03,02,2.80
2019,03,31,03,03,2.80
2019,03,31,03,04,2.80
2019,03,31,03,05,2.80
2019,03,31,03,06,2.80
2019,03,31,03,07,2.80
2019,03,31,03,08,2.80
2019,03,31,03,09,2.80
2019,03,31,03,10,2.80
2019,03,31,03,11,2.70
2019,03,31,03,12,2.70
2019,03,31,03,13,2.70
2019,03,31,03,14,2.70
2019,03,31,03,15,2.70
2019,03,31,03,16,2.70
2019,03,31,03,17,2.70
2019,03,31,03,18,2.70
2019,03,31,03,19,2.70
2019,03,31,03,20,2.60
2019,03,31,03,21,2.60
2019,03,31,03,22,2.60
2019,03,31,03,23,2.60
2019,03,31,03,24,2.60
2019,03,31,03,25,2.60
2019,03,31,03,26,2.60
2019,03,31,03,27,2.60
2019,03,31,03,28,2.60
2019,03,31,03,29,2.60
2019,03,31,03,30,2.50
2019,03,31,03,31,2.50
2019,03,31,03,32,2.50
2019,03,31,03,33,2.50
2019,03,31,03,34,2.50
2019,03,31,03,35,2.50
2019,03,31,03,36,2.50
2019,03,31,03,37,2.50
2019,03,31,03,38,2.50
2019,03,31,03,39,2.40
2019,03,31,03,40,2.40
2019,03,31,03,41,2.40
2019,03,31,03,42,2.40
2019,03,31,03,43,2.40
2019,03,31,03,44,2.40
2019,03,31,03,45,2.40
2019,03,31,03,46,2.40
2019,03,31,03,47,2.30
2019,03,31,03,48,2.30
2019,03,31,03,49,2.30
2019,03,31,03,50,2.30
2019,03,31,03,51,2.30
2019,03,31,03,52,2.30
2019,03,31,03,53,2.20
2019,03,31,03,54,2.20
2019,03,31,03,55,2.20
2019,03,31,03,56,2.20
2019,03,31,03,57,2.20
2019,03,31,03,58,2.20
2019,03,31,03,59,2.20
2019,03,31,04,00,2.20
2019,03,31,04,01,2.20
2019,03,31,04,02,2.10
2019,03,31,04,03,2.10
2019,03,31,04,04,2.10
2019,03,31,04,05,2.10
2019,03,31,04,06,2.10
2019,03,31,04,07,2.10
2019,03,31,04,08,2.10
2019,03,31,04,09,2.10
2019,03,31,04,10,2.10
2019,03,31,04,11,2.10
2019,03,31,04,12,2.10
2019,03,31,04,13,2.10
2019,03,31,04,14,2.00
2019,03,31,04,15,2.00
2019,03,31,04,16,2.00
2019,03,31,04,17,2.00
2019,03,31,04,18,2.00
2019,03,31,04,19,2.00
2019,03,31,04,20,1.90
2019,03,31,04,21,1.90
2019,03,31,04,22,1.90
2019,03,31,04,23,1.90
2019,03,31,04,24,1.90
2019,03,31,04,25,1.90
2019,03,31,04,26,1.90
2019,03,31,04,27,1.80
2019,03,31,04,28,1.80
2019,03,31,04,29,1.80
2019,03,31,04,30,1.80
2019,03,31,04,31,1.80
2019,03,31,04,32,1.80
2019,03,31,04,33,1.80
2019,03,31,04,34,1.80
2019,03,31,04,35,1.70
2019,03,31,04,36,1.70
2019,03,31,04,37,1.70
2019,03,31,04,38,1.70
2019,03,31,04,39,1.70
2019,03,31,04,40,1.70
2019,03,31,04,41,1.70
2019,03,31,04,42,1.70
2019,03,31,04,43,1.70
2019,03,31,04,44,1.70
2019,03,31,04,45,1.60
2019,03,31,04,46,1.60
2019,03,31,04,47,1.60
2019,03,31,04,48,1.60
2019,03,31,04,49,1.60
2019,03,31,04,50,1.60
2019,03,31,04,51,1.60
2019,03,31,04,52,1.60
2019,03,31,04,53,1.60
2019,03,31,04,54,1.60
2019,03,31,04,55,1.60
2019,03,31,04,56,1.60
2019,03,31,04,57,1.60
2019,03,31,04,58,1.50
2019,03,31,04,59,1.50
2019,03,31,05,00,1.50
2019,03,31,05,01,1.50
2019,03,31,05,02,1.50
2019,03,31,05,03,1.50
2019,03,31,05,04,1.40
2019,03,31,05,05,1.40
2019,03,31,05,06,1.40
2019,03,31,05,07,1.40
2019,03,31,05,08,1.40
2019,03,31,05,09,1.40
2019,03,31,05,10,1.40
2019,03,31,05,11,1.40
2019,03,31,05,12,1.40
2019,03,31,05,13,1.40
2019,03,31,05,14,1.40
2019,03,31,05,15,1.40
2019,03,31,05,16,1.30
2019,03,31,05,17,1.30
2019,03,31,05,18,1.30
2019,03,31,05,19,1.30
2019,03,31,05,20,1.30
2019,03,31,05,21,1.30
2019,03,31,05,22,1.30
2019,03,31,05,23,1.30
2019,03,31,05,24,1.30
2019,03,31,05,25,1.30
2019,03,31,05,26,1.30
2019,03,31,05,27,1.30
2019,03,31,05,28,1.30
2019,03,31,05,29,1.30
2019,03,31,05,30,1.30
2019,03,31,05,31,1.20
2019,03,31,05,32,1.20
2019,03,31,05,33,1.20
2019,03,31,05,34,1.20
2019,03,31,05,35,1.20
2019,03,31,05,36,1.20
2019,03,31,05,37,1.20
2019,03,31,05,38,1.20
2019,03,31,05,39,1.10
2019,03,31,05,40,1.10
2019,03,31,05,41,1.10
2019,03,31,05,42,1.10
2019,03,31,05,43,1.10
2019,03,31,05,44,1.10
2019,03,31,05,45,1.10
2019,03,31,05,46,1.00
2019,03,31,05,47,1.00
2019,03,31,05,48,1.00
2019,03,31,05,49,1.00
2019,03,31,05,50,1.00
2019,03,31,05,51,1.00
2019,03,31,05,52,1.00
2019,03,31,05,53,1.00
2019,03,31,05,54,1.00
2019,03,31,05,55,0.90
2019,03,31,05,56,0.90
2019,03,31,05,57,0.90
2019,03,31,05,58,0.90
2019,03,31,05,59,0.90
2019,03,31,06,00,0.90
2019,03,31,06,01,0.90
2019,03,31,06,02,0.80
2019,03,31,06,03,0.80
2019,03,31,06,04,0.80
2019,03,31,06,05,0.80
2019,03,31,06,06,0.80
2019,03,31,06,07,0.80
2019,03,31,06,08,0.80
2019,03,31,06,09,0.80
2019,03,31,06,10,0.80
2019,03,31,06,11,0.80
2019,03,31,06,12,0.80
2019,03,31,06,13,0.80
2019,03,31,06,14,0.80
2019,03,31,06,15,0.80
2019,03,31,06,16,0.80
2019,03,31,06,17,0.70
2019,03,31,06,18,0.70
2019,03,31,06,19,0.70
2019,03,31,06,20,0.70
2019,03,31,06,21,0.70
2019,03,31,06,22,0.70
2019,03,31,06,23,0.70
2019,03,31,06,24,0.70
2019,03,31,06,25,0.70
2019,03,31,06,26,0.70
2019,03,31,06,27,0.60
2019,03,31,06,28,0.60
2019,03,31,06,29,0.60
2019,03,31,06,30,0.60
2019,03,31,06,31,0.60
2019,03,31,06,32,0.60
2019,03,31,06,33,0.60
2019,03,31,06,34,0.60
2019,03,31,06,35,0.60
2019,03,31,06,36,0.60
2019,03,31,06,37,0.60
2019,03,31,06,38,0.60
2019,03,31,06,39,0.60
2019,03,31,06,40,0.60
2019,03,31,06,41,0.60
2019,03,31,06,42,0.60
2019,03,31,06,43,0.60
2019,03,31,06,44,0.60
2019,03,31,06,45,0.50
2019,03,31,06,46,0.50
2019,03,31,06,47,0.50
2019,03,31,06,48,0.50
2019,03,31,06,49,0.50
2019,03,31,06,50,0.50
2019,03,31,06,51,0.50
2019,03,31,06,52,0.50
2019,03,31,06,53,0.50
2019,03,31,06,54,0.50
2019,03,31,06,55,0.40
2019,03,31,06,56,0.40
2019,03,31,06,57,0.40
2019,03,31,06,58,0.40
2019,03,31,06,59,0.40
2019,03,31,07,00,0.40
2019,03,31,07,01,0.40
2019,03,31,07,02,0.40
2019,03,31,07,03,0.40
2019,03,31,07,04,0.40
2019,03,31,07,05,0.40
2019,03,31,07,06,0.40
2019,03,31,07,07,0.40
2019,03,31,07,08,0.40
2019,03,31,07,09,0.40
2019,03,31,07,10,0.40
2019,03,31,07,11,0.30
2019,03,31,07,12,0.30
2019,03,31,07,13,0.30
2019,03,31,07,14,0.30
2019,03,31,07,15,0.30
2019,03,31,07,16,0.30
2019,03,31,07,17,0.30
2019,03,31,07,18,0.30
2019,03,31,07,19,0.30
2019,03,31,07,20,0.30
2019,03,31,07,21,0.30
2019,03,31,07,22,0.30
2019,03,31,07,23,0.30
2019,03,31,07,24,0.30
2019,03,31,07,25,0.30
2019,03,31,07,26,0.30
2019,03,31,07,27,0.30
2019,03,31,07,28,0.30
2019,03,31,07,29,0.30
2019,03,31,07,30,0.30
2019,03,31,07,31,0.30
2019,03,31,07,32,0.30
2019,03,31,07,33,0.30
2019,03,31,07,34,0.30
2019,03,31,07,35,0.30
2019,03,31,07,36,0.30
2019,03,31,07,37,0.30
2019,03,31,07,38,0.30
2019,03,31,07,39,0.30
2019,03,31,07,40,0.30
2019,03,31,07,41,0.30
2019,03,31,07,42,0.30
2019,03,31,07,43,0.30
2019,03,31,07,44,0.30
2019,03,31,07,45,0.30
2019,03,31,07,46,0.30
2019,03,31,07,47,0.30
2019,03,31,07,48,0.30
2019,03,31,07,49,0.30
2019,03,31,07,50,0.30
2019,03,31,07,51,0.30
2019,03,31,07,52,0.30
2019,03,31,07,53,0.30
2019,03,31,07,54,0.40
2019,03,31,07,55,0.40
2019,03,31,07,56,0.40
2019,03,31,07,57,0.40
2019,03,31,07,58,0.40
2019,03,31,07,59,0.40
2019,03,31,08,00,0.40
2019,03,31,08,01,0.40
2019,03,31,08,02,0.40
2019,03,31,08,03,0.40
2019,03,31,08,04,0.40
2019,03,31,08,05,0.40
2019,03,31,08,06,0.50
2019,03,31,08,07,0.50
2019,03,31,08,08,0.50
2019,03,31,08,09,0.50
2019,03,31,08,10,0.50
2019,03,31,08,11,0.50
2019,03,31,08,12,0.60
2019,03,31,08,13,0.60
2019,03,31,08,14,0.60
2019,03,31,08,15,0.60
2019,03,31,08,16,0.60
2019,03,31,08,17,0.60
2019,03,31,08,18,0.60
2019,03,31,08,19,0.70
2019,03,31,08,20,0.70
2019,03,31,08,21,0.70
2019,03,31,08,22,0.70
2019,03,31,08,23,0.70
2019,03,31,08,24,0.80
2019,03,31,08,25,0.80
2019,03,31,08,26,0.80
2019,03,31,08,27,0.90
2019,03,31,08,28,0.90
2019,03,31,08,29,0.90
2019,03,31,08,30,1.00
2019,03,31,08,31,1.00
2019,03,31,08,32,1.00
2019,03,31,08,33,1.10
2019,03,31,08,34,1.10
2019,03,31,08,35,1.10
2019,03,31,08,36,1.20
2019,03,31,08,37,1.20
2019,03,31,08,38,1.20
2019,03,31,08,39,1.30
2019,03,31,08,40,1.30
2019,03,31,08,41,1.40
2019,03,31,08,42,1.40
2019,03,31,08,43,1.50
2019,03,31,08,44,1.50
2019,03,31,08,45,1.60
2019,03,31,08,46,1.60
2019,03,31,08,47,1.60
2019,03,31,08,48,1.70
2019,03,31,08,49,1.70
2019,03,31,08,50,1.70
2019,03,31,08,51,1.80
2019,03,31,08,52,1.80
2019,03,31,08,53,1.80
2019,03,31,08,54,1.90
2019,03,31,08,55,1.90
2019,03,31,08,56,2.00
2019,03,31,08,57,2.10
2019,03,31,08,58,2.10
2019,03,31,08,59,2.20
2019,03,31,09,00,2.40
2019,03,31,09,01,2.50
2019,03,31,09,02,2.60
2019,03,31,09,03,2.70
2019,03,31,09,04,2.70
2019,03,31,09,05,2.80
2019,03,31,09,06,2.90
2019,03,31,09,07,3.00
2019,03,31,09,08,3.10
2019,03,31,09,09,3.10
2019,03,31,09,10,3.20
2019,03,31,09,11,3.20
2019,03,31,09,12,3.20
2019,03,31,09,13,3.20
2019,03,31,09,14,3.30
2019,03,31,09,15,3.30
2019,03,31,09,16,3.40
2019,03,31,09,17,3.50
2019,03,31,09,18,3.50
2019,03,31,09,19,3.60
2019,03,31,09,20,3.60
2019,03,31,09,21,3.60
2019,03,31,09,22,3.70
2019,03,31,09,23,3.80
2019,03,31,09,24,3.90
2019,03,31,09,25,4.00
2019,03,31,09,26,4.00
2019,03,31,09,27,4.10
2019,03,31,09,28,4.10
2019,03,31,09,29,4.10
2019,03,31,09,30,4.20
2019,03,31,09,31,4.20
2019,03,31,09,32,4.20
2019,03,31,09,33,4.30
2019,03,31,09,34,4.30
2019,03,31,09,35,4.30
2019,03,31,09,36,4.40
2019,03,31,09,37,4.50
2019,03,31,09,38,4.50
2019,03,31,09,39,4.60
2019,03,31,09,40,4.60
2019,03,31,09,41,4.60
2019,03,31,09,42,4.70
2019,03,31,09,43,4.70
2019,03,31,09,44,4.70
2019,03,31,09,45,4.80
2019,03,31,09,46,4.80
2019,03,31,09,47,4.80
2019,03,31,09,48,4.90
2019,03,31,09,49,5.00
2019,03,31,09,50,5.10
2019,03,31,09,51,5.10
2019,03,31,09,52,5.20
2019,03,31,09,53,5.30
2019,03,31,09,54,5.30
2019,03,31,09,55,5.30
2019,03,31,09,56,5.30
2019,03,31,09,57,5.30
2019,03,31,09,58,5.30
2019,03,31,09,59,5.30
2019,03,31,10,00,5.30
2019,03,31,10,01,5.40
2019,03,31,10,02,5.40
2019,03,31,10,03,5.50
2019,03,31,10,04,5.60
2019,03,31,10,05,5.70
2019,03,31,10,06,5.80
2019,03,31,10,07,5.80
2019,03,31,10,08,5.90
2019,03,31,10,09,6.00
2019,03,31,10,10,6.10
2019,03,31,10,11,6.10
2019,03,31,10,12,6.20
2019,03,31,10,13,6.20
2019,03,31,10,14,6.30
2019,03,31,10,15,6.30
2019,03,31,10,16,6.40
2019,03,31,10,17,6.40
2019,03,31,10,18,6.50
2019,03,31,10,19,6.60
2019,03,31,10,20,6.60
2019,03,31,10,21,6.70
2019,03,31,10,22,6.80
2019,03,31,10,23,6.80
2019,03,31,10,24,6.80
2019,03,31,10,25,6.90
2019,03,31,10,26,6.90
2019,03,31,10,27,6.90
2019,03,31,10,28,7.00
2019,03,31,10,29,7.00
2019,03,31,10,30,7.10
2019,03,31,10,31,7.20
2019,03,31,10,32,7.20
2019,03,31,10,33,7.30
2019,03,31,10,34,7.40
2019,03,31,10,35,7.50
2019,03,31,10,36,7.70
2019,03,31,10,37,7.80
2019,03,31,10,38,7.90
2019,03,31,10,39,8.00
2019,03,31,10,40,8.10
2019,03,31,10,41,8.10
2019,03,31,10,42,8.20
2019,03,31,10,43,8.20
2019,03,31,10,44,8.30
2019,03,31,10,45,8.30
2019,03,31,10,46,8.40
2019,03,31,10,47,8.50
2019,03,31,10,48,8.60
2019,03,31,10,49,8.70
2019,03,31,10,50,8.70
2019,03,31,10,51,8.70
2019,03,31,10,52,8.70
2019,03,31,10,53,8.70
2019,03,31,10,54,8.80
2019,03,31,10,55,8.80
2019,03,31,10,56,8.80
2019,03,31,10,57,8.90
2019,03,31,10,58,9.00
2019,03,31,10,59,9.10
2019,03,31,11,00,9.10
2019,03,31,11,01,9.20
2019,03,31,11,02,9.30
2019,03,31,11,03,9.40
2019,03,31,11,04,9.50
2019,03,31,11,05,9.60
2019,03,31,11,06,9.60
2019,03,31,11,07,9.70
2019,03,31,11,08,9.80
2019,03,31,11,09,9.80
2019,03,31,11,10,9.90
2019,03,31,11,11,9.90
2019,03,31,11,12,10.00
2019,03,31,11,13,10.00
2019,03,31,11,14,10.10
2019,03,31,11,15,10.10
2019,03,31,11,16,10.10
2019,03,31,11,17,10.20
2019,03,31,11,18,10.20
2019,03,31,11,19,10.30
2019,03,31,11,20,10.40
2019,03,31,11,21,10.40
2019,03,31,11,22,10.50
2019,03,31,11,23,10.60
2019,03,31,11,24,10.60
2019,03,31,11,25,10.70
2019,03,31,11,26,10.70
2019,03,31,11,27,10.80
2019,03,31,11,28,10.80
2019,03,31,11,29,10.90
2019,03,31,11,30,10.90
2019,03,31,11,31,11.00
2019,03,31,11,32,11.10
2019,03,31,11,33,11.10
2019,03,31,11,34,11.10
2019,03,31,11,35,11.10
2019,03,31,11,36,11.20
2019,03,31,11,37,11.20
2019,03,31,11,38,11.20
2019,03,31,11,39,11.30
2019,03,31,11,40,11.30
2019,03,31,11,41,11.30
2019,03,31,11,42,11.30
2019,03,31,11,43,11.40
2019,03,31,11,44,11.40
2019,03,31,11,45,11.50
2019,03,31,11,46,11.60
2019,03,31,11,47,11.70
2019,03,31,11,48,11.80
2019,03,31,11,49,11.90
2019,03,31,11,50,12.00
2019,03,31,11,51,12.10
2019,03,31,11,52,12.20
2019,03,31,11,53,12.20
2019,03,31,11,54,12.30
2019,03,31,11,55,12.50
2019,03,31,11,56,12.60
2019,03,31,11,57,12.70
2019,03,31,11,58,12.80
2019,03,31,11,59,12.90
2019,03,31,12,00,13.00
2019,03,31,12,01,13.00
2019,03,31,12,02,13.10
2019,03,31,12,03,13.20
2019,03,31,12,04,13.30
2019,03,31,12,05,13.30
2019,03,31,12,06,13.40
2019,03,31,12,07,13.40
2019,03,31,12,08,13.30
2019,03,31,12,09,13.30
2019,03,31,12,10,13.30
2019,03,31,12,11,13.30
2019,03,31,12,12,13.30
2019,03,31,12,13,13.40
2019,03,31,12,14,13.40
2019,03,31,12,15,13.50
2019,03,31,12,16,13.50
2019,03,31,12,17,13.60
2019,03,31,12,18,13.70
2019,03,31,12,19,13.70
2019,03,31,12,20,13.80
2019,03,31,12,21,13.80
2019,03,31,12,22,13.90
2019,03,31,12,23,14.00
2019,03,31,12,24,14.10
2019,03,31,12,25,14.20
2019,03,31,12,26,14.30
2019,03,31,12,27,14.40
2019,03,31,12,28,14.50
2019,03,31,12,29,14.60
2019,03,31,12,30,14.60
2019,03,31,12,31,14.60
2019,03,31,12,32,14.50
2019,03,31,12,33,14.50
2019,03,31,12,34,14.40
2019,03,31,12,35,14.40
2019,03,31,12,36,14.50
2019,03,31,12,37,14.60
2019,03,31,12,38,14.60
2019,03,31,12,39,14.60
2019,03,31,12,40,14.60
2019,03,31,12,41,14.60
2019,03,31,12,42,14.60
2019,03,31,12,43,14.60
2019,03,31,12,44,14.70
2019,03,31,12,45,14.70
2019,03,31,12,46,14.70
2019,03,31,12,47,14.80
2019,03,31,12,48,14.90
2019,03,31,12,49,14.90
2019,03,31,12,50,15.00
2019,03,31,12,51,15.10
2019,03,31,12,52,15.10
2019,03,31,12,53,15.10
2019,03,31,12,54,15.10
2019,03,31,12,55,15.20
2019,03,31,12,56,15.20
2019,03,31,12,57,15.20
2019,03,31,12,58,15.20
2019,03,31,12,59,15.30
2019,03,31,13,00,15.30
2019,03,31,13,01,15.40
2019,03,31,13,02,15.50
2019,03,31,13,03,15.60
2019,03,31,13,04,15.70
2019,03,31,13,05,15.80
2019,03,31,13,06,15.90
2019,03,31,13,07,16.00
2019,03,31,13,08,16.10
2019,03,31,13,09,16.20
2019,03,31,13,10,16.30
2019,03,31,13,11,16.50
2019,03,31,13,12,16.60
2019,03,31,13,13,16.70
2019,03,31,13,14,16.70
2019,03,31,13,15,16.80
2019,03,31,13,16,16.80
2019,03,31,13,17,16.80
2019,03,31,13,18,16.90
2019,03,31,13,19,17.00
2019,03,31,13,20,17.10
2019,03,31,13,21,17.10
2019,03,31,13,22,17.10
2019,03,31,13,23,17.10
2019,03,31,13,24,17.20
2019,03,31,13,25,17.20
2019,03,31,13,26,17.20
2019,03,31,13,27,17.30
2019,03,31,13,28,17.30
2019,03,31,13,29,17.20
2019,03,31,13,30,17.20
2019,03,31,13,31,17.20
2019,03,31,13,32,17.20
2019,03,31,13,33,17.10
2019,03,31,13,34,17.20
2019,03,31,13,35,17.20
2019,03,31,13,36,17.40
2019,03,31,13,37,17.50
2019,03,31,13,38,17.70
2019,03,31,13,39,17.70
2019,03,31,13,40,17.80
2019,03,31,13,41,17.80
2019,03,31,13,42,17.80
2019,03,31,13,43,17.80
2019,03,31,13,44,17.90
2019,03,31,13,45,17.90
2019,03,31,13,46,17.90
2019,03,31,13,47,18.00
2019,03,31,13,48,18.10
2019,03,31,13,49,18.10
2019,03,31,13,50,18.20
2019,03,31,13,51,18.30
2019,03,31,13,52,18.40
2019,03,31,13,53,18.50
2019,03,31,13,54,18.50
2019,03,31,13,55,18.60
2019,03,31,13,56,18.70
2019,03,31,13,57,18.80
2019,03,31,13,58,18.90
2019,03,31,13,59,18.90
2019,03,31,14,00,18.90
2019,03,31,14,01,18.90
2019,03,31,14,02,18.90
2019,03,31,14,03,18.80
2019,03,31,14,04,18.80
2019,03,31,14,05,18.80
2019,03,31,14,06,18.80
2019,03,31,14,07,18.90
2019,03,31,14,08,19.00
2019,03,31,14,09,19.10
2019,03,31,14,10,19.20
2019,03,31,14,11,19.30
2019,03,31,14,12,19.40
2019,03,31,14,13,19.40
2019,03,31,14,14,19.40
2019,03,31,14,15,19.40
2019,03,31,14,16,19.40
2019,03,31,14,17,19.50
2019,03,31,14,18,19.50
2019,03,31,14,19,19.40
2019,03,31,14,20,19.30
2019,03,31,14,21,19.20
2019,03,31,14,22,19.20
2019,03,31,14,23,19.30
2019,03,31,14,24,19.30
2019,03,31,14,25,19.20
2019,03,31,14,26,19.20
2019,03,31,14,27,19.10
2019,03,31,14,28,19.10
2019,03,31,14,29,19.00
2019,03,31,14,30,19.00
2019,03,31,14,31,19.00
2019,03,31,14,32,19.00
2019,03,31,14,33,18.90
2019,03,31,14,34,19.00
2019,03,31,14,35,19.00
2019,03,31,14,36,19.10
2019,03,31,14,37,19.10
2019,03,31,14,38,19.00
2019,03,31,14,39,19.00
2019,03,31,14,40,18.90
2019,03,31,14,41,19.00
2019,03,31,14,42,19.00
2019,03,31,14,43,19.10
2019,03,31,14,44,19.00
2019,03,31,14,45,19.00
2019,03,31,14,46,19.00
2019,03,31,14,47,18.90
2019,03,31,14,48,18.90
2019,03,31,14,49,18.80
2019,03,31,14,50,18.90
2019,03,31,14,51,18.90
2019,03,31,14,52,19.00
2019,03,31,14,53,19.00
2019,03,31,14,54,19.00
2019,03,31,14,55,19.00
2019,03,31,14,56,19.00
2019,03,31,14,57,19.10
2019,03,31,14,58,19.00
2019,03,31,14,59,19.00
2019,03,31,15,00,18.90
2019,03,31,15,01,18.90
2019,03,31,15,02,18.90
2019,03,31,15,03,19.00
2019,03,31,15,04,19.10
2019,03,31,15,05,19.10
2019,03,31,15,06,19.20
2019,03,31,15,07,19.20
2019,03,31,15,08,19.20
2019,03,31,15,09,19.20
2019,03,31,15,10,19.20
2019,03,31,15,11,19.20
2019,03,31,15,12,19.20
2019,03,31,15,13,19.20
2019,03,31,15,14,19.20
2019,03,31,15,15,19.20
2019,03,31,15,16,19.10
2019,03,31,15,17,19.10
2019,03,31,15,18,19.10
2019,03,31,15,19,19.10
2019,03,31,15,20,19.10
2019,03,31,15,21,19.20
2019,03,31,15,22,19.20
2019,03,31,15,23,19.20
2019,03,31,15,24,19.20
2019,03,31,15,25,19.10
2019,03,31,15,26,19.10
2019,03,31,15,27,19.10
2019,03,31,15,28,19.20
2019,03,31,15,29,19.20
2019,03,31,15,30,19.10
2019,03,31,15,31,19.10
2019,03,31,15,32,19.00
2019,03,31,15,33,18.90
2019,03,31,15,34,18.90
2019,03,31,15,35,18.90
2019,03,31,15,36,18.90
2019,03,31,15,37,18.90
2019,03,31,15,38,19.00
2019,03,31,15,39,19.10
2019,03,31,15,40,19.10
2019,03,31,15,41,19.20
2019,03,31,15,42,19.10
2019,03,31,15,43,19.10
2019,03,31,15,44,19.10
2019,03,31,15,45,19.20
2019,03,31,15,46,19.30
2019,03,31,15,47,19.30
2019,03,31,15,48,19.20
2019,03,31,15,49,19.20
2019,03,31,15,50,19.20
2019,03,31,15,51,19.20
2019,03,31,15,52,19.30
2019,03,31,15,53,19.30
2019,03,31,15,54,19.30
2019,03,31,15,55,19.40
2019,03,31,15,56,19.40
2019,03,31,15,57,19.40
2019,03,31,15,58,19.30
2019,03,31,15,59,19.20
2019,03,31,16,00,19.10
2019,03,31,16,01,19.00
2019,03,31,16,02,19.00
2019,03,31,16,03,18.90
2019,03,31,16,04,18.90
2019,03,31,16,05,18.80
2019,03,31,16,06,18.80
2019,03,31,16,07,18.80
2019,03,31,16,08,18.70
2019,03,31,16,09,18.70
2019,03,31,16,10,18.70
2019,03,31,16,11,18.60
2019,03,31,16,12,18.60
2019,03,31,16,13,18.60
2019,03,31,16,14,18.60
2019,03,31,16,15,18.60
2019,03,31,16,16,18.70
2019,03,31,16,17,18.80
2019,03,31,16,18,18.80
2019,03,31,16,19,18.80
2019,03,31,16,20,18.80
2019,03,31,16,21,18.80
2019,03,31,16,22,18.80
2019,03,31,16,23,18.70
2019,03,31,16,24,18.70
2019,03,31,16,25,18.70
2019,03,31,16,26,18.70
2019,03,31,16,27,18.70
2019,03,31,16,28,18.60
2019,03,31,16,29,18.60
2019,03,31,16,30,18.60
2019,03,31,16,31,18.60
2019,03,31,16,32,18.50
2019,03,31,16,33,18.50
2019,03,31,16,34,18.50
2019,03,31,16,35,18.40
2019,03,31,16,36,18.40
2019,03,31,16,37,18.40
2019,03,31,16,38,18.30
2019,03,31,16,39,18.30
2019,03,31,16,40,18.20
2019,03,31,16,41,18.20
2019,03,31,16,42,18.20
2019,03,31,16,43,18.20
2019,03,31,16,44,18.20
2019,03,31,16,45,18.20
2019,03,31,16,46,18.20
2019,03,31,16,47,18.20
2019,03,31,16,48,18.20
2019,03,31,16,49,18.20
2019,03,31,16,50,18.10
2019,03,31,16,51,18.10
2019,03,31,16,52,18.10
2019,03,31,16,53,18.10
2019,03,31,16,54,18.10
2019,03,31,16,55,18.20
2019,03,31,16,56,18.20
2019,03,31,16,57,18.20
2019,03,31,16,58,18.20
2019,03,31,16,59,18.20
2019,03,31,17,00,18.20
2019,03,31,17,01,18.20
2019,03,31,17,02,18.20
2019,03,31,17,03,18.20
2019,03,31,17,04,18.20
2019,03,31,17,05,18.20
2019,03,31,17,06,18.20
2019,03,31,17,07,18.20
2019,03,31,17,08,18.20
2019,03,31,17,09,18.20
2019,03,31,17,10,18.10
2019,03,31,17,11,18.00
2019,03,31,17,12,18.00
2019,03,31,17,13,18.00
2019,03,31,17,14,18.00
2019,03,31,17,15,18.00
2019,03,31,17,16,18.10
2019,03,31,17,17,18.10
2019,03,31,17,18,18.10
2019,03,31,17,19,18.00
2019,03,31,17,20,18.00
2019,03,31,17,21,18.00
2019,03,31,17,22,18.10
2019,03,31,17,23,18.00
2019,03,31,17,24,18.00
2019,03,31,17,25,18.00
2019,03,31,17,26,18.00
2019,03,31,17,27,18.00
2019,03,31,17,28,18.00
2019,03,31,17,29,18.00
2019,03,31,17,30,18.00
2019,03,31,17,31,18.00
2019,03,31,17,32,18.00
2019,03,31,17,33,18.00
2019,03,31,17,34,18.10
2019,03,31,17,35,18.10
2019,03,31,17,36,18.10
2019,03,31,17,37,18.00
2019,03,31,17,38,18.00
2019,03,31,17,39,17.90
2019,03,31,17,40,17.90
2019,03,31,17,41,17.90
2019,03,31,17,42,17.80
2019,03,31,17,43,17.80
2019,03,31,17,44,17.80
2019,03,31,17,45,17.80
2019,03,31,17,46,17.80
2019,03,31,17,47,17.80
2019,03,31,17,48,17.80